| time (UTC) | temp F | wind direction | speed MPH | gust MPH | rain 1hr in | rain 24hr in | rain mn in | humidity % | barometer mb |
| 20260506195553 | 65 | 76 | 1.0 | 3.0 | 0.18 | 0.56 | 0.56 | 95 | 1013.2 |
| 20260506195054 | 65 | 175 | 1.0 | 3.0 | 0.18 | 0.56 | 0.56 | 95 | 1013.5 |
| 20260506194600 | 65 | 134 | 1.0 | 3.0 | 0.17 | 0.55 | 0.55 | 95 | 1013.7 |
| 20260506194053 | 65 | 139 | 0.0 | 2.0 | 0.16 | 0.54 | 0.54 | 95 | 1013.4 |
| 20260506193553 | 65 | 0 | 1.0 | 2.0 | 0.14 | 0.52 | 0.52 | 94 | 1013.5 |
| 20260506193104 | 65 | 0 | 0.0 | 2.0 | 0.12 | 0.50 | 0.50 | 94 | 1013.6 |
| 20260506192554 | 65 | 0 | 0.0 | 3.0 | 0.10 | 0.48 | 0.48 | 94 | 1013.5 |
| 20260506192053 | 66 | 93 | 1.0 | 3.0 | 0.08 | 0.46 | 0.46 | 94 | 1013.2 |
| 20260506191552 | 66 | 142 | 0.0 | 2.0 | 0.06 | 0.44 | 0.44 | 94 | 1013.5 |
| 20260506191053 | 66 | 0 | 0.0 | 2.0 | 0.03 | 0.41 | 0.41 | 93 | 1013.6 |
| 20260506190554 | 66 | 0 | 0.0 | 1.0 | 0.01 | 0.39 | 0.39 | 93 | 1014.0 |
| 20260506190055 | 66 | 0 | 0.0 | 1.0 | 0.00 | 0.38 | 0.38 | 93 | 1013.9 |
| 20260506185552 | 66 | 58 | 0.0 | 2.0 | 0.00 | 0.38 | 0.38 | 93 | 1013.8 |
| 20260506185053 | 66 | 0 | 0.0 | 2.0 | 0.00 | 0.38 | 0.38 | 93 | 1013.9 |
| 20260506184553 | 66 | 58 | 0.0 | 2.0 | 0.00 | 0.38 | 0.38 | 93 | 1013.8 |
| 20260506184054 | 66 | 0 | 0.0 | 3.0 | 0.00 | 0.38 | 0.38 | 93 | 1014.0 |
| 20260506183556 | 66 | 106 | 0.0 | 3.0 | 0.00 | 0.38 | 0.38 | 93 | 1014.1 |
| 20260506183103 | 66 | 99 | 0.0 | 4.0 | 0.00 | 0.38 | 0.38 | 94 | 1014.1 |
| 20260506182553 | 66 | 25 | 0.0 | 4.0 | 0.00 | 0.38 | 0.38 | 93 | 1014.3 |
| 20260506182053 | 66 | 18 | 0.0 | 3.0 | 0.00 | 0.38 | 0.38 | 93 | 1014.4 |
| 20260506181556 | 66 | 0 | 0.0 | 2.0 | 0.00 | 0.38 | 0.38 | 93 | 1014.5 |
| 20260506181050 | 66 | 0 | 0.0 | 2.0 | 0.00 | 0.38 | 0.38 | 93 | 1014.6 |
| 20260506180553 | 66 | 81 | 0.0 | 2.0 | 0.00 | 0.38 | 0.38 | 93 | 1014.4 |
| 20260506180055 | 66 | 0 | 0.0 | 2.0 | 0.00 | 0.38 | 0.38 | 92 | 1014.5 |
| 20260506175552 | 66 | 0 | 0.0 | 2.0 | 0.00 | 0.38 | 0.38 | 92 | 1014.5 |
| 20260506175057 | 67 | 0 | 0.0 | 2.0 | 0.00 | 0.38 | 0.38 | 93 | 1014.5 |
| 20260506174555 | 66 | 0 | 0.0 | 2.0 | 0.00 | 0.38 | 0.38 | 92 | 1014.3 |
| 20260506174054 | 67 | 0 | 0.0 | 2.0 | 0.00 | 0.38 | 0.38 | 92 | 1014.5 |
| 20260506173554 | 67 | 320 | 1.0 | 4.0 | 0.00 | 0.38 | 0.38 | 94 | 1014.4 |
| 20260506173059 | 67 | 5 | 0.0 | 4.0 | 0.00 | 0.38 | 0.38 | 94 | 1014.4 |
| 20260506172554 | 67 | 15 | 1.0 | 5.0 | 0.00 | 0.38 | 0.38 | 94 | 1014.2 |
| 20260506172053 | 67 | 117 | 1.0 | 5.0 | 0.00 | 0.38 | 0.38 | 96 | 1014.1 |
| 20260506171554 | 66 | 252 | 1.0 | 6.0 | 0.00 | 0.38 | 0.38 | 95 | 1014.2 |
| 20260506171054 | 66 | 333 | 1.0 | 6.0 | 0.00 | 0.38 | 0.38 | 95 | 1014.0 |
| 20260506170554 | 66 | 5 | 1.0 | 5.0 | 0.00 | 0.38 | 0.38 | 96 | 1014.0 |
| 20260506170057 | 65 | 49 | 1.0 | 5.0 | 0.00 | 0.38 | 0.38 | 96 | 1014.0 |
| 20260506165553 | 65 | 352 | 1.0 | 5.0 | 0.00 | 0.38 | 0.38 | 96 | 1013.8 |
| 20260506165053 | 65 | 24 | 2.0 | 5.0 | 0.00 | 0.38 | 0.38 | 96 | 1013.8 |
| 20260506164624 | 64 | 0 | 1.0 | 9.0 | 0.00 | 0.38 | 0.38 | 96 | 1014.0 |
| 20260506164053 | 64 | 14 | 2.0 | 9.0 | 0.01 | 0.38 | 0.38 | 96 | 1014.0 |
| 20260506163554 | 64 | 31 | 1.0 | 6.0 | 0.02 | 0.38 | 0.38 | 96 | 1014.0 |
| 20260506163108 | 64 | 89 | 1.0 | 5.0 | 0.04 | 0.38 | 0.38 | 96 | 1014.3 |
| 20260506162554 | 64 | 10 | 1.0 | 4.0 | 0.05 | 0.38 | 0.38 | 96 | 1014.6 |
| 20260506162055 | 64 | 5 | 0.0 | 0.0 | 0.06 | 0.38 | 0.38 | 96 | 1014.3 |
| 20260506161559 | 64 | 0 | 0.0 | 0.0 | 0.06 | 0.38 | 0.38 | 96 | 1014.3 |
| 20260506161055 | 64 | 0 | 0.0 | 2.0 | 0.06 | 0.38 | 0.38 | 97 | 1014.2 |
| 20260506160553 | 63 | 0 | 0.0 | 2.0 | 0.07 | 0.38 | 0.38 | 96 | 1014.3 |
| 20260506160122 | 63 | 0 | 0.0 | 2.0 | 0.09 | 0.38 | 0.38 | 96 | 1014.6 |
| 20260506155553 | 62 | 42 | 0.0 | 2.0 | 0.12 | 0.38 | 0.38 | 96 | 1014.9 |
| 20260506155053 | 62 | 0 | 0.0 | 3.0 | 0.15 | 0.38 | 0.38 | 96 | 1015.2 |
| 20260506154559 | 62 | 0 | 0.0 | 3.0 | 0.18 | 0.38 | 0.38 | 96 | 1015.3 |
| 20260506154054 | 62 | 0 | 0.0 | 2.0 | 0.21 | 0.37 | 0.37 | 96 | 1015.4 |
| 20260506153558 | 62 | 0 | 0.0 | 2.0 | 0.23 | 0.36 | 0.36 | 95 | 1015.0 |
| 20260506153057 | 62 | 51 | 0.0 | 2.0 | 0.24 | 0.34 | 0.34 | 95 | 1015.8 |
| 20260506152554 | 62 | 0 | 0.0 | 1.0 | 0.25 | 0.33 | 0.33 | 95 | 1015.8 |
| 20260506152056 | 62 | 0 | 0.0 | 1.0 | 0.25 | 0.32 | 0.32 | 95 | 1015.7 |
| 20260506151604 | 62 | 0 | 0.0 | 3.0 | 0.25 | 0.32 | 0.32 | 95 | 1015.6 |
| 20260506151053 | 62 | 0 | 1.0 | 4.0 | 0.25 | 0.32 | 0.32 | 95 | 1015.5 |
| 20260506150553 | 62 | 28 | 1.0 | 4.0 | 0.24 | 0.31 | 0.31 | 95 | 1015.3 |
| 20260506145554 | 62 | 19 | 1.0 | 4.0 | 0.20 | 0.26 | 0.26 | 95 | 1015.1 |
| 20260506145052 | 62 | 5 | 0.0 | 5.0 | 0.18 | 0.23 | 0.23 | 94 | 1015.0 |
| 20260506144603 | 62 | 42 | 2.0 | 5.0 | 0.18 | 0.20 | 0.20 | 94 | 1014.9 |
| 20260506144053 | 62 | 95 | 1.0 | 3.0 | 0.14 | 0.16 | 0.16 | 94 | 1014.8 |
| 20260506143554 | 62 | 5 | 1.0 | 3.0 | 0.11 | 0.13 | 0.13 | 94 | 1014.7 |
| 20260506143054 | 62 | 0 | 0.0 | 2.0 | 0.08 | 0.10 | 0.10 | 94 | 1014.7 |
| 20260506142554 | 62 | 9 | 0.0 | 2.0 | 0.06 | 0.08 | 0.08 | 93 | 1014.7 |
| 20260506142052 | 62 | 9 | 0.0 | 2.0 | 0.05 | 0.07 | 0.07 | 93 | 1014.3 |
| 20260506141553 | 62 | 5 | 0.0 | 2.0 | 0.05 | 0.07 | 0.07 | 93 | 1014.0 |
| 20260506141053 | 62 | 58 | 0.0 | 2.0 | 0.05 | 0.07 | 0.07 | 93 | 1013.9 |
| 20260506140553 | 62 | 58 | 0.0 | 4.0 | 0.05 | 0.07 | 0.07 | 93 | 1013.9 |
| 20260506140055 | 62 | 0 | 0.0 | 4.0 | 0.05 | 0.07 | 0.07 | 93 | 1014.1 |
| 20260506135554 | 62 | 321 | 0.0 | 4.0 | 0.04 | 0.06 | 0.06 | 92 | 1014.0 |
| 20260506135053 | 62 | 346 | 1.0 | 4.0 | 0.03 | 0.05 | 0.05 | 92 | 1013.5 |
| 20260506134552 | 63 | 0 | 1.0 | 3.0 | 0.00 | 0.02 | 0.02 | 93 | 1014.1 |
| 20260506134057 | 63 | 300 | 0.0 | 2.0 | 0.00 | 0.02 | 0.02 | 93 | 1014.1 |
| 20260506133553 | 63 | 0 | 0.0 | 1.0 | 0.00 | 0.02 | 0.02 | 93 | 1013.9 |
| 20260506133108 | 63 | 0 | 0.0 | 1.0 | 0.00 | 0.02 | 0.02 | 92 | 1014.0 |
| 20260506132552 | 63 | 0 | 0.0 | 1.0 | 0.00 | 0.02 | 0.02 | 92 | 1013.6 |
| 20260506132053 | 62 | 0 | 0.0 | 1.0 | 0.00 | 0.02 | 0.02 | 92 | 1013.7 |
| 20260506131611 | 62 | 0 | 0.0 | 4.0 | 0.00 | 0.02 | 0.02 | 92 | 1013.6 |
| 20260506131053 | 62 | 0 | 0.0 | 4.0 | 0.00 | 0.02 | 0.02 | 92 | 1013.6 |
| 20260506130554 | 62 | 51 | 0.0 | 2.0 | 0.00 | 0.02 | 0.02 | 93 | 1013.4 |
| 20260506130053 | 62 | 0 | 0.0 | 2.0 | 0.01 | 0.02 | 0.02 | 92 | 1013.5 |
| 20260506125553 | 62 | 0 | 0.0 | 2.0 | 0.02 | 0.02 | 0.02 | 92 | 1013.4 |
| 20260506125053 | 62 | 0 | 1.0 | 2.0 | 0.02 | 0.02 | 0.02 | 92 | 1013.4 |
| 20260506124556 | 62 | 0 | 0.0 | 2.0 | 0.02 | 0.02 | 0.02 | 91 | 1013.4 |
| 20260506124054 | 62 | 0 | 0.0 | 1.0 | 0.02 | 0.02 | 0.02 | 91 | 1013.7 |
| 20260506123554 | 62 | 0 | 0.0 | 1.0 | 0.02 | 0.02 | 0.02 | 91 | 1013.4 |
| 20260506123056 | 62 | 0 | 0.0 | 2.0 | 0.02 | 0.02 | 0.02 | 90 | 1013.3 |
| 20260506122554 | 62 | 0 | 0.0 | 2.0 | 0.02 | 0.02 | 0.02 | 90 | 1013.2 |
| 20260506122052 | 62 | 63 | 0.0 | 2.0 | 0.02 | 0.02 | 0.02 | 89 | 1013.1 |
| 20260506121557 | 62 | 66 | 0.0 | 2.0 | 0.02 | 0.02 | 0.02 | 88 | 1013.3 |
| 20260506121054 | 62 | 0 | 1.0 | 3.0 | 0.02 | 0.02 | 0.02 | 87 | 1013.2 |
| 20260506120554 | 62 | 0 | 0.0 | 4.0 | 0.02 | 0.02 | 0.02 | 87 | 1013.4 |
| 20260506115555 | 63 | 225 | 1.0 | 4.0 | 0.00 | 0.00 | 0.00 | 85 | 1013.5 |
| 20260506115053 | 63 | 45 | 0.0 | 2.0 | 0.00 | 0.00 | 0.00 | 85 | 1013.4 |
| 20260506114554 | 63 | 0 | 0.0 | 2.0 | 0.00 | 0.00 | 0.00 | 84 | 1013.3 |
| 20260506114056 | 63 | 45 | 0.0 | 2.0 | 0.00 | 0.00 | 0.00 | 84 | 1013.2 |
| 20260506113553 | 63 | 0 | 0.0 | 2.0 | 0.00 | 0.00 | 0.00 | 83 | 1013.0 |
| 20260506113051 | 63 | 0 | 0.0 | 0.0 | 0.00 | 0.00 | 0.00 | 83 | 1013.1 |
| 20260506112553 | 63 | 0 | 0.0 | 2.0 | 0.00 | 0.00 | 0.00 | 83 | 1013.1 |
| 20260506112054 | 64 | 0 | 0.0 | 2.0 | 0.00 | 0.00 | 0.00 | 82 | 1013.1 |
| 20260506111555 | 64 | 179 | 0.0 | 2.0 | 0.00 | 0.00 | 0.00 | 81 | 1012.9 |
| 20260506111053 | 64 | 0 | 0.0 | 2.0 | 0.00 | 0.00 | 0.00 | 80 | 1012.5 |
| 20260506110553 | 65 | 0 | 0.0 | 2.0 | 0.00 | 0.00 | 0.00 | 79 | 1012.6 |
| 20260506110113 | 65 | 0 | 1.0 | 3.0 | 0.00 | 0.00 | 0.00 | 77 | 1012.4 |
| 20260506105553 | 65 | 50 | 0.0 | 3.0 | 0.00 | 0.00 | 0.00 | 77 | 1012.5 |
| 20260506105053 | 65 | 0 | 0.0 | 3.0 | 0.00 | 0.00 | 0.00 | 76 | 1012.8 |
| 20260506104612 | 65 | 55 | 0.0 | 4.0 | 0.00 | 0.00 | 0.00 | 77 | 1012.9 |
| 20260506104054 | 65 | 284 | 0.0 | 9.0 | 0.00 | 0.00 | 0.00 | 78 | 1012.9 |
| 20260506103553 | 65 | 96 | 1.0 | 9.0 | 0.00 | 0.00 | 0.00 | 77 | 1012.9 |
| 20260506103054 | 64 | 87 | 1.0 | 8.0 | 0.00 | 0.00 | 0.00 | 78 | 1012.9 |
| 20260506102556 | 64 | 304 | 1.0 | 8.0 | 0.00 | 0.00 | 0.00 | 78 | 1012.8 |
| 20260506102056 | 64 | 0 | 0.0 | 2.0 | 0.00 | 0.00 | 0.00 | 78 | 1012.6 |
| 20260506101600 | 65 | 0 | 0.0 | 2.0 | 0.00 | 0.00 | 0.00 | 78 | 1012.5 |
| 20260506101055 | 65 | 0 | 0.0 | 2.0 | 0.00 | 0.00 | 0.00 | 77 | 1012.5 |
| 20260506100557 | 65 | 0 | 0.0 | 3.0 | 0.00 | 0.00 | 0.00 | 77 | 1012.5 |
| 20260506100116 | 65 | 0 | 0.0 | 3.0 | 0.00 | 0.00 | 0.00 | 77 | 1012.3 |
| 20260506095553 | 65 | 20 | 1.0 | 3.0 | 0.00 | 0.00 | 0.00 | 76 | 1012.3 |
| 20260506095054 | 65 | 0 | 0.0 | 3.0 | 0.00 | 0.00 | 0.00 | 76 | 1012.2 |
| 20260506094600 | 65 | 21 | 0.0 | 5.0 | 0.00 | 0.00 | 0.00 | 75 | 1012.1 |
| 20260506094053 | 66 | 0 | 1.0 | 5.0 | 0.00 | 0.00 | 0.00 | 75 | 1012.1 |
| 20260506093552 | 65 | 32 | 1.0 | 5.0 | 0.00 | 0.00 | 0.00 | 75 | 1012.1 |
| 20260506093053 | 65 | 19 | 0.0 | 3.0 | 0.00 | 0.00 | 0.00 | 75 | 1012.0 |
| 20260506092553 | 65 | 344 | 1.0 | 4.0 | 0.00 | 0.00 | 0.00 | 75 | 1011.9 |
| 20260506092053 | 65 | 344 | 1.0 | 4.0 | 0.00 | 0.00 | 0.00 | 75 | 1011.9 |
| 20260506091554 | 65 | 343 | 1.0 | 4.0 | 0.00 | 0.00 | 0.00 | 75 | 1011.6 |
| 20260506091054 | 66 | 306 | 1.0 | 4.0 | 0.00 | 0.00 | 0.00 | 75 | 1011.4 |
| 20260506090553 | 66 | 0 | 1.0 | 4.0 | 0.00 | 0.00 | 0.00 | 74 | 1011.6 |
| 20260506090051 | 66 | 13 | 1.0 | 4.0 | 0.00 | 0.00 | 0.00 | 74 | 1011.6 |
| 20260506085553 | 66 | 5 | 0.0 | 7.0 | 0.00 | 0.00 | 0.00 | 74 | 1011.8 |
| 20260506085053 | 66 | 5 | 2.0 | 7.0 | 0.00 | 0.00 | 0.00 | 74 | 1011.6 |
| 20260506084617 | 66 | 5 | 1.0 | 4.0 | 0.00 | 0.00 | 0.00 | 73 | 1011.6 |
| 20260506084050 | 66 | 26 | 1.0 | 5.0 | 0.00 | 0.00 | 0.00 | 73 | 1011.6 |
| 20260506083553 | 66 | 5 | 1.0 | 5.0 | 0.00 | 0.00 | 0.00 | 73 | 1011.6 |
| 20260506083056 | 67 | 9 | 1.0 | 6.0 | 0.00 | 0.00 | 0.00 | 73 | 1011.6 |
| 20260506082553 | 67 | 22 | 1.0 | 7.0 | 0.00 | 0.00 | 0.00 | 72 | 1011.8 |
| 20260506082050 | 67 | 38 | 3.0 | 7.0 | 0.00 | 0.00 | 0.00 | 72 | 1011.8 |
| 20260506081558 | 67 | 5 | 1.0 | 4.0 | 0.00 | 0.00 | 0.00 | 72 | 1011.9 |
| 20260506081053 | 67 | 13 | 1.0 | 5.0 | 0.00 | 0.00 | 0.00 | 72 | 1011.9 |
| 20260506080557 | 67 | 352 | 2.0 | 8.0 | 0.00 | 0.00 | 0.00 | 72 | 1012.1 |
| 20260506073052 | 66 | 87 | 1.0 | 4.0 | 0.00 | 0.00 | 0.00 | 71 | 1012.3 |
| 20260506072550 | 66 | 21 | 1.0 | 4.0 | 0.00 | 0.00 | 0.00 | 71 | 1012.1 |
| 20260506072053 | 66 | 36 | 1.0 | 4.0 | 0.00 | 0.00 | 0.00 | 70 | 1012.0 |
| 20260506071558 | 66 | 5 | 1.0 | 5.0 | 0.00 | 0.00 | 0.00 | 69 | 1011.9 |
| 20260506071050 | 66 | 338 | 1.0 | 6.0 | 0.00 | 0.00 | 0.00 | 68 | 1012.0 |
| 20260506070553 | 66 | 16 | 1.0 | 6.0 | 0.00 | 0.00 | 0.00 | 68 | 1012.1 |
| 20260506062052 | 65 | 0 | 1.0 | 5.0 | 0.00 | 0.00 | 0.00 | 68 | 1012.4 |
| 20260506061554 | 64 | 19 | 1.0 | 5.0 | 0.00 | 0.00 | 0.00 | 66 | 1012.5 |
| 20260506061055 | 64 | 87 | 1.0 | 4.0 | 0.00 | 0.00 | 0.00 | 67 | 1012.7 |
| 20260506060555 | 64 | 0 | 1.0 | 3.0 | 0.00 | 0.00 | 0.00 | 67 | 1013.0 |
| 20260506051050 | 64 | 0 | 1.0 | 3.0 | 0.00 | 0.00 | 0.00 | 64 | 1013.2 |
| 20260506050552 | 64 | 0 | 0.0 | 3.0 | 0.00 | 0.00 | 0.00 | 64 | 1013.3 |
| 20260506045052 | 64 | 0 | 0.0 | 2.0 | 0.00 | 0.00 | 0.00 | 64 | 1013.1 |
| 20260506044554 | 64 | 227 | 0.0 | 1.0 | 0.00 | 0.00 | 0.00 | 64 | 1012.9 |
| 20260506044053 | 64 | 0 | 0.0 | 2.0 | 0.00 | 0.00 | 0.00 | 64 | 1013.0 |
| 20260506043553 | 64 | 0 | 0.0 | 2.0 | 0.00 | 0.00 | 0.00 | 64 | 1013.2 |
| 20260506043058 | 64 | 0 | 0.0 | 2.0 | 0.00 | 0.00 | 0.00 | 64 | 1013.1 |
| 20260506042554 | 64 | 325 | 0.0 | 1.0 | 0.00 | 0.00 | 0.00 | 63 | 1013.3 |
| 20260506042056 | 63 | 0 | 0.0 | 2.0 | 0.00 | 0.00 | 0.00 | 65 | 1013.2 |
| 20260506041606 | 63 | 0 | 0.0 | 3.0 | 0.00 | 0.00 | 0.00 | 64 | 1013.1 |
| 20260506041053 | 63 | 169 | 1.0 | 3.0 | 0.00 | 0.00 | 0.00 | 65 | 1013.1 |
| 20260506040553 | 63 | 0 | 0.0 | 2.0 | 0.00 | 0.00 | 0.00 | 65 | 1013.1 |
| 20260506040058 | 63 | 71 | 0.0 | 2.0 | 0.00 | 0.00 | 0.00 | 67 | 1012.9 |
| 20260506035554 | 63 | 71 | 0.0 | 2.0 | 0.00 | 0.00 | 0.00 | 67 | 1013.1 |
| 20260506035049 | 63 | 0 | 0.0 | 2.0 | 0.00 | 0.00 | 0.00 | 66 | 1013.2 |
| 20260506034557 | 63 | 0 | 0.0 | 2.0 | 0.00 | 0.00 | 0.00 | 68 | 1013.0 |
| 20260506034053 | 63 | 0 | 0.0 | 1.0 | 0.00 | 0.00 | 0.00 | 67 | 1013.3 |
| 20260506033553 | 63 | 71 | 0.0 | 2.0 | 0.00 | 0.00 | 0.00 | 68 | 1013.3 |
| 20260506033054 | 63 | 0 | 0.0 | 4.0 | 0.00 | 0.00 | 0.00 | 70 | 1013.4 |
| 20260506032552 | 63 | 0 | 0.0 | 4.0 | 0.00 | 0.00 | 0.00 | 68 | 1013.2 |
| 20260506032054 | 63 | 16 | 0.0 | 4.0 | 0.00 | 0.00 | 0.00 | 68 | 1013.2 |
| 20260506031556 | 63 | 82 | 0.0 | 4.0 | 0.00 | 0.00 | 0.00 | 68 | 1013.2 |
| 20260506031054 | 62 | 85 | 0.0 | 4.0 | 0.00 | 0.00 | 0.00 | 69 | 1013.2 |
| 20260506030553 | 62 | 17 | 0.0 | 1.0 | 0.00 | 0.00 | 0.00 | 70 | 1013.6 |
| 20260506030100 | 62 | 205 | 0.0 | 1.0 | 0.00 | 0.00 | 0.00 | 71 | 1013.4 |
| 20260506025552 | 62 | 0 | 0.0 | 1.0 | 0.00 | 0.00 | 0.00 | 71 | 1013.3 |
| 20260506025056 | 62 | 0 | 0.0 | 2.0 | 0.00 | 0.00 | 0.00 | 71 | 1013.2 |
| 20260506024552 | 61 | 0 | 0.0 | 2.0 | 0.00 | 0.00 | 0.00 | 71 | 1013.1 |
| 20260506024053 | 61 | 0 | 0.0 | 2.0 | 0.00 | 0.00 | 0.00 | 72 | 1013.2 |
| 20260506023553 | 61 | 0 | 0.0 | 2.0 | 0.00 | 0.00 | 0.00 | 73 | 1013.2 |
| 20260506023108 | 61 | 0 | 0.0 | 2.0 | 0.00 | 0.00 | 0.00 | 73 | 1013.3 |
| 20260506022552 | 61 | 205 | 0.0 | 1.0 | 0.00 | 0.00 | 0.00 | 74 | 1013.1 |
| 20260506022053 | 61 | 0 | 0.0 | 2.0 | 0.00 | 0.00 | 0.00 | 74 | 1013.2 |
| 20260506021611 | 60 | 0 | 0.0 | 2.0 | 0.00 | 0.00 | 0.00 | 75 | 1013.3 |
| 20260506021053 | 60 | 205 | 0.0 | 2.0 | 0.00 | 0.00 | 0.00 | 76 | 1013.2 |
| 20260506020552 | 60 | 205 | 0.0 | 2.0 | 0.00 | 0.00 | 0.00 | 78 | 1013.2 |
| 20260506020054 | 59 | 0 | 0.0 | 2.0 | 0.00 | 0.00 | 0.00 | 79 | 1013.2 |
| 20260506015554 | 59 | 0 | 0.0 | 1.0 | 0.00 | 0.00 | 0.00 | 79 | 1013.0 |
| 20260506015055 | 59 | 205 | 0.0 | 1.0 | 0.00 | 0.00 | 0.00 | 79 | 1013.0 |
| 20260506014551 | 59 | 0 | 0.0 | 1.0 | 0.00 | 0.00 | 0.00 | 80 | 1012.7 |
| 20260506014054 | 59 | 0 | 0.0 | 1.0 | 0.00 | 0.00 | 0.00 | 79 | 1012.5 |
| 20260506013552 | 59 | 0 | 0.0 | 0.0 | 0.00 | 0.00 | 0.00 | 79 | 1012.6 |
| 20260506013100 | 59 | 0 | 0.0 | 2.0 | 0.00 | 0.00 | 0.00 | 79 | 1012.6 |
| 20260506012552 | 59 | 0 | 0.0 | 2.0 | 0.00 | 0.00 | 0.00 | 79 | 1012.5 |
| 20260506012052 | 59 | 0 | 0.0 | 1.0 | 0.00 | 0.00 | 0.00 | 79 | 1012.5 |
| 20260506011615 | 59 | 0 | 0.0 | 1.0 | 0.00 | 0.00 | 0.00 | 80 | 1012.5 |
| 20260506011053 | 59 | 0 | 0.0 | 1.0 | 0.00 | 0.00 | 0.00 | 80 | 1012.7 |
| 20260506010553 | 60 | 0 | 0.0 | 1.0 | 0.00 | 0.00 | 0.00 | 81 | 1012.7 |
| 20260506010057 | 60 | 0 | 0.0 | 1.0 | 0.00 | 0.00 | 0.00 | 81 | 1012.7 |
| 20260506005555 | 60 | 0 | 0.0 | 1.0 | 0.00 | 0.00 | 0.00 | 81 | 1012.9 |
| 20260506005052 | 60 | 0 | 0.0 | 2.0 | 0.00 | 0.00 | 0.00 | 81 | 1012.9 |
| 20260506004554 | 60 | 0 | 0.0 | 2.0 | 0.00 | 0.00 | 0.00 | 81 | 1012.7 |
| 20260506004052 | 61 | 205 | 0.0 | 2.0 | 0.00 | 0.00 | 0.00 | 80 | 1012.7 |
| 20260506003552 | 61 | 0 | 0.0 | 2.0 | 0.00 | 0.00 | 0.00 | 79 | 1012.8 |
| 20260506003058 | 61 | 0 | 0.0 | 2.0 | 0.00 | 0.00 | 0.00 | 78 | 1012.6 |
| 20260506002552 | 61 | 229 | 0.0 | 2.0 | 0.00 | 0.00 | 0.00 | 78 | 1012.9 |
| 20260506002049 | 61 | 0 | 0.0 | 2.0 | 0.00 | 0.00 | 0.00 | 76 | 1013.0 |
| 20260506001607 | 62 | 0 | 0.0 | 2.0 | 0.00 | 0.00 | 0.00 | 76 | 1012.7 |
| 20260506001049 | 62 | 217 | 0.0 | 2.0 | 0.00 | 0.00 | 0.00 | 75 | 1012.8 |
| 20260506000552 | 62 | 0 | 0.0 | 2.0 | 0.00 | 0.00 | 0.00 | 75 | 1012.8 |
| 20260505235553 | 62 | 217 | 0.0 | 2.0 | 0.00 | 0.00 | 0.00 | 77 | 1012.7 |
| 20260505235053 | 62 | 273 | 0.0 | 2.0 | 0.00 | 0.00 | 0.00 | 78 | 1012.9 |
| 20260505234553 | 62 | 0 | 0.0 | 2.0 | 0.00 | 0.00 | 0.00 | 76 | 1012.7 |
| 20260505234050 | 62 | 273 | 0.0 | 2.0 | 0.00 | 0.00 | 0.00 | 76 | 1012.5 |
| 20260505233554 | 62 | 0 | 0.0 | 3.0 | 0.00 | 0.00 | 0.00 | 75 | 1012.3 |
| 20260505233106 | 63 | 0 | 0.0 | 3.0 | 0.00 | 0.00 | 0.00 | 74 | 1012.2 |
| 20260505232552 | 63 | 53 | 0.0 | 2.0 | 0.00 | 0.00 | 0.00 | 73 | 1012.2 |
| 20260505232053 | 64 | 0 | 0.0 | 2.0 | 0.00 | 0.00 | 0.00 | 72 | 1012.6 |
| 20260505231608 | 64 | 0 | 0.0 | 2.0 | 0.00 | 0.00 | 0.00 | 71 | 1012.7 |
| 20260505231049 | 65 | 0 | 0.0 | 2.0 | 0.00 | 0.00 | 0.00 | 70 | 1012.7 |
| 20260505230553 | 66 | 0 | 0.0 | 2.0 | 0.00 | 0.00 | 0.00 | 67 | 1012.7 |
| 20260505230054 | 67 | 28 | 0.0 | 2.0 | 0.00 | 0.00 | 0.00 | 65 | 1012.6 |
| 20260505225552 | 68 | 0 | 0.0 | 4.0 | 0.00 | 0.00 | 0.00 | 61 | 1012.4 |
| 20260505225052 | 69 | 21 | 0.0 | 4.0 | 0.00 | 0.00 | 0.00 | 59 | 1012.3 |
| 20260505224601 | 69 | 352 | 1.0 | 4.0 | 0.00 | 0.00 | 0.00 | 51 | 1012.4 |
| 20260505224049 | 70 | 19 | 0.0 | 3.0 | 0.00 | 0.00 | 0.00 | 49 | 1012.7 |
| 20260505223552 | 70 | 19 | 1.0 | 3.0 | 0.00 | 0.00 | 0.00 | 49 | 1012.9 |
| 20260505223057 | 71 | 0 | 0.0 | 4.0 | 0.00 | 0.00 | 0.00 | 48 | 1012.9 |
| 20260505222554 | 71 | 352 | 1.0 | 4.0 | 0.00 | 0.00 | 0.00 | 42 | 1013.2 |
| 20260505222052 | 71 | 343 | 2.0 | 4.0 | 0.00 | 0.00 | 0.00 | 41 | 1013.2 |
| 20260505221551 | 72 | 336 | 1.0 | 8.0 | 0.00 | 0.00 | 0.00 | 41 | 1013.3 |
| 20260505221052 | 72 | 360 | 3.0 | 8.0 | 0.00 | 0.00 | 0.00 | 40 | 1013.1 |
| 20260505220549 | 72 | 46 | 2.0 | 5.0 | 0.00 | 0.00 | 0.00 | 39 | 1013.1 |
| 20260505220057 | 72 | 331 | 1.0 | 5.0 | 0.00 | 0.00 | 0.00 | 40 | 1013.0 |
| 20260505215553 | 73 | 21 | 3.0 | 5.0 | 0.00 | 0.00 | 0.00 | 39 | 1012.9 |
| 20260505215053 | 73 | 313 | 2.0 | 9.0 | 0.00 | 0.00 | 0.00 | 39 | 1012.8 |
| 20260505214557 | 73 | 5 | 1.0 | 9.0 | 0.00 | 0.00 | 0.00 | 38 | 1013.0 |
| 20260505214053 | 74 | 45 | 3.0 | 9.0 | 0.00 | 0.00 | 0.00 | 38 | 1012.8 |
| 20260505213553 | 74 | 9 | 2.0 | 5.0 | 0.00 | 0.00 | 0.00 | 37 | 1012.4 |
| 20260505213056 | 74 | 360 | 2.0 | 6.0 | 0.00 | 0.00 | 0.00 | 39 | 1012.3 |
| 20260505212554 | 74 | 67 | 2.0 | 9.0 | 0.00 | 0.00 | 0.00 | 37 | 1012.4 |
| 20260505212054 | 75 | 5 | 2.0 | 9.0 | 0.00 | 0.00 | 0.00 | 39 | 1012.3 |
| 20260505211552 | 75 | 34 | 2.0 | 6.0 | 0.00 | 0.00 | 0.00 | 43 | 1012.4 |
| 20260505211053 | 75 | 92 | 1.0 | 8.0 | 0.00 | 0.00 | 0.00 | 41 | 1012.4 |
| 20260505210553 | 76 | 318 | 2.0 | 8.0 | 0.00 | 0.00 | 0.00 | 43 | 1012.5 |
| 20260505210055 | 76 | 313 | 2.0 | 8.0 | 0.00 | 0.00 | 0.00 | 42 | 1012.2 |
| 20260505205554 | 76 | 0 | 1.0 | 6.0 | 0.00 | 0.00 | 0.00 | 42 | 1012.3 |
| 20260505205054 | 76 | 332 | 3.0 | 6.0 | 0.00 | 0.00 | 0.00 | 41 | 1012.4 |
| 20260505204554 | 76 | 317 | 1.0 | 3.0 | 0.00 | 0.00 | 0.00 | 42 | 1012.7 |
| 20260505204054 | 76 | 352 | 1.0 | 4.0 | 0.00 | 0.00 | 0.00 | 41 | 1012.5 |
| 20260505203554 | 76 | 125 | 1.0 | 5.0 | 0.00 | 0.00 | 0.00 | 40 | 1012.5 |
| 20260505203117 | 75 | 0 | 2.0 | 7.0 | 0.00 | 0.00 | 0.00 | 40 | 1012.7 |
| 20260505202557 | 75 | 232 | 2.0 | 10.0 | 0.00 | 0.00 | 0.00 | 39 | 1012.5 |
| 20260505202056 | 75 | 19 | 2.0 | 10.0 | 0.00 | 0.00 | 0.00 | 39 | 1012.6 |
| 20260505201602 | 75 | 338 | 2.0 | 8.0 | 0.00 | 0.00 | 0.00 | 37 | 1012.7 |
| 20260505201054 | 76 | 23 | 3.0 | 8.0 | 0.00 | 0.00 | 0.00 | 37 | 1012.7 |
| 20260505200554 | 76 | 136 | 2.0 | 5.0 | 0.00 | 0.00 | 0.00 | 39 | 1012.6 |
| 20260505200057 | 75 | 5 | 2.0 | 7.0 | 0.00 | 0.00 | 0.00 | 43 | 1012.7 |